User: anonymous   Login
Location: *
(17.3280°S, 114.7300°W)
Time: 11:20:00
(UTC+00:00)
Language:

DNEPR-1 R/B - Orbit

View from above orbital plane
View from above orbital plane
View from above satellite
View from above satellite

Ground track
Ground track

The orbit data is extracted from the following two-line orbital elements,

1 26550U 00057F   20296.51603254 -.00000086 +00000-0 +99398-5 0  9993
2 26550 064.5634 355.9181 0527127 171.1565 189.9248 13.80796872011644
Epoch (UTC): 22 October 2020 12:23:05
Eccentricity: 0.0527127
inclination: 64.5634°
perigee height: 574 km
apogee height: 1348 km
right ascension of ascending node: 355.9181°
argument of perigee: 171.1565°
revolutions per day: 13.80796872
mean anomaly at epoch: 189.9248°
orbit number at epoch: 1164

The dashed part of the orbit path shows where the satellite is in the earth's shadow,  

DLR